sat.trackr.live / text

‹ back to catalog

LATINSAT B

NORAD 27606 · 2002-058B

PAYLOAD ACTIVE UNKNOWN

§ Identity

Operator
Country
ARGN
Launch date
2002-12-20
Launch site
TYMSC
Launch vehicle
Mass (kg)
RCS (m²)
0.03

External: N2YO · Heavens-Above · Gunter

§ Orbital elements

Epoch: 2026-09-09T23:48:11.686752Z

Period
97.49 min
Inclination
64.5563°
Eccentricity
0.0085805
Mean motion
14.77115745 rev/d
Perigee alt
578.2 km
Apogee alt
698.6 km
Semi-major
7,016.6 km
B*
7.8838e-5
RAAN
350.7746°
Arg perigee
253.4229°
Mean anomaly
105.7438°
Rev number
27,462

§ Raw data

LATINSAT B1 27606U 02058B   26252.99180193  .00000441  00000+0  78838-4 0  99992 27606  64.5563 350.7746 0085805 253.4229 105.7438 14.77115745274628

JSON: /api/v1/satellites/27606 · /tle

For live sub-satellite position, see the globe view (requires WebGL).

§ Visibility from observer

Set your observer location to see the next 7 days of passes ≥ 10°. The values pass through the URL so the page stays shareable.

No JS? Fill the form by hand. The geolocation button needs JavaScript.